| Date | Time | Temp. (oF) | Dew Point (oF) | Rel. Hum. (%) | Press. (in.) | Wind Dir. | Wind Speed (mph) | Hourly Rainfall (in.) |
|
|---|---|---|---|---|---|---|---|---|---|
| 1 | 03/21 | 00:00 | 31 | 30 | 97 | 30.12 | NNE | 4 | 0.00 |
| 2 | 03/20 | 23:00 | 31 | 30 | 97 | 30.12 | NE | 4 | 0.00 |
| 3 | 03/20 | 22:00 | 31 | 30 | 97 | 30.13 | NNE | 4 | 0.00 |
| 4 | 03/20 | 21:00 | 31 | 29 | 96 | 30.12 | NE | 4 | 0.00 |
| 5 | 03/20 | 20:00 | 31 | 29 | 96 | 30.12 | NNE | 4 | 0.00 |
| 6 | 03/20 | 19:00 | 31 | 29 | 96 | 30.10 | ENE | 5 | 0.00 |
| 7 | 03/20 | 18:00 | 31 | 30 | 97 | 30.09 | ENE | 2 | 0.00 |
| 8 | 03/20 | 17:00 | 31 | 30 | 97 | 30.10 | ENE | 6 | 0.02 |
| 9 | 03/20 | 16:00 | 31 | 30 | 97 | 30.11 | E | 3 | 0.04 |
| 10 | 03/20 | 15:00 | 32 | 31 | 97 | 30.13 | E | 7 | 0.02 |
| 11 | 03/20 | 14:00 | 32 | 31 | 97 | 30.16 | E | 4 | 0.03 |
| 12 | 03/20 | 13:00 | 32 | 31 | 97 | 30.20 | NE | 3 | 0.03 |
| 13 | 03/20 | 12:00 | 32 | 31 | 97 | 30.21 | ESE | 5 | 0.02 |
| 14 | 03/20 | 11:00 | 31 | 30 | 97 | 30.23 | ESE | 6 | 0.02 |
| 15 | 03/20 | 10:00 | 31 | 30 | 97 | 30.24 | E | 5 | 0.02 |
| 16 | 03/20 | 09:00 | 31 | 29 | 96 | 30.23 | E | 5 | 0.00 |
| 17 | 03/20 | 08:00 | 31 | 29 | 94 | 30.26 | SE | 3 | 0.00 |
| 18 | 03/20 | 07:00 | 32 | 28 | 87 | 30.25 | ENE | 2 | 0.00 |
| 19 | 03/20 | 06:00 | 34 | 21 | 59 | 30.25 | ESE | 0 | 0.00 |
| 20 | 03/20 | 05:00 | 33 | 20 | 61 | 30.23 | E | 0 | 0.00 |
| 21 | 03/20 | 04:00 | 33 | 19 | 57 | 30.24 | ESE | 0 | 0.00 |
| 22 | 03/20 | 03:00 | 33 | 18 | 55 | 30.26 | ENE | 0 | 0.00 |
| 23 | 03/20 | 02:00 | 33 | 18 | 54 | 30.27 | ENE | 0 | 0.00 |
| 24 | 03/20 | 01:00 | 33 | 16 | 51 | 30.28 | ENE | 0 | 0.00 |